Home > Weather > Port Vila > Past weeks

Flag for Vanuatu Past Weather in Port Vila, Vanuatu — Yesterday and Last 2 Weeks

Now
73 °F

Passing clouds.


Feels Like: 70 °F
Forecast: 75 / 81 °F
Wind: 5 mph from Southeast

Location: Bauerfield Efate

Current Time: Jul 24, 2016 at 2:05:09 AM

Latest Report: Jul 24, 2016 at 12:00 AM


Visibility: N/A

Pressure: 29.98 "Hg

Humidity: 94%

Dew Point: 72 °F

Location of Port VilaLocation

Past Weather in Port Vila — Graph

°F

Port Vila Temperature Yesterday

Maximum temperature yesterday: 81 °F (at 12:00 PM)
Minimum temperature yesterday: 66 °F (at 3:00 AM)
Average temperature yesterday: 73 °F

High & Low Weather Summary for the Past Weeks

 TemperatureHumidityPressure
High82 °F (Jul 9, 10:00 AM)100% (Jul 9, 12:00 AM)30.09 "Hg (Jul 9, 12:00 AM)
Low59 °F (Jul 20, 4:00 AM)57% (Jul 21, 10:00 AM)29.86 "Hg (Jul 9, 3:00 PM)
Average72 °F84%30.00 "Hg
* Reported Jul 9 12:00 AM — Jul 24 12:00 AM, Port Vila, Weather by CustomWeather, © 2016

Note: Actual official high and low records may vary slightly from our data, if they occured in-between our weather recording intervals... More about our weather records

Advertising

Port Vila Weather History for the Previous 24 Hours

Scroll right to see more
 ConditionsComfort  
Time TempWeatherWind HumidityBarometerVisibility
12:00 AM
Sun, Jul 24
73 °FPassing clouds.5 mph94%29.98 "HgN/A
11:00 PM
Sat, Jul 23
73 °FPassing clouds.6 mph94%29.95 "HgN/A
10:00 PM73 °FPassing clouds.7 mph94%29.98 "HgN/A
8:00 PM73 °FPassing clouds.3 mph89%29.95 "HgN/A
7:00 PM73 °FPartly cloudy.5 mph89%29.95 "HgN/A
6:00 PM73 °FSprinkles. Partly cloudy.5 mph94%29.92 "HgN/A
5:00 PM77 °FBroken clouds.7 mph89%29.92 "HgN/A
4:00 PM79 °FScattered clouds.12 mph84%29.89 "HgN/A
3:00 PM79 °FPartly sunny.8 mph84%29.89 "HgN/A
2:00 PM79 °FPartly sunny.8 mph84%29.89 "HgN/A
1:00 PM79 °FPartly sunny.10 mph84%29.89 "HgN/A
12:00 PM81 °FPartly sunny.13 mph79%29.92 "HgN/A
11:00 AM79 °FPartly sunny.7 mph84%29.95 "HgN/A
10:00 AM77 °FBroken clouds.13 mph83%29.98 "HgN/A
9:00 AM73 °FSprinkles. Broken clouds.7 mph94%29.98 "HgN/A
8:00 AM73 °FSprinkles. Broken clouds.No wind94%29.98 "HgN/A
7:00 AM70 °FPartly sunny.2 mph100%29.95 "HgN/A
6:00 AM68 °FPassing clouds.7 mph94%29.92 "HgN/A
5:00 AM68 °FPassing clouds.3 mph100%29.92 "HgN/A
4:00 AM68 °FPassing clouds.5 mph100%29.92 "HgN/A
3:00 AM66 °FPassing clouds.2 mph100%29.92 "HgN/A
2:00 AM68 °FPassing clouds.2 mph94%29.92 "HgN/A
Weather by CustomWeather, © 2016

See weather overviewHow to use our weather pages